EN

Hourly Weather Ladozhskaya

Today, 24 July, Saturday

Time Temperature Precipitation Wind Pressure Humidity
00:00 +23°C° 0 mm 1 mps 749 mmHg 59%
01:00 +22°C° 0 mm 1 mps 749 mmHg 61%
02:00 +21°C° 0 mm 1 mps 749 mmHg 63%
03:00 +21°C° 0 mm 1 mps 749 mmHg 64%
04:00 +21°C° 0 mm 1 mps 749 mmHg 65%
05:00 +21°C° 0 mm 1 mps 749 mmHg 66%
06:00 +21°C° 0 mm 1 mps 750 mmHg 67%
07:00 +23°C° 0 mm 1 mps 750 mmHg 60%
08:00 +26°C° 0 mm 1 mps 750 mmHg 53%
09:00 +28°C° 0 mm 1 mps 750 mmHg 46%
10:00 +29°C° 0 mm 2 mps 750 mmHg 40%
11:00 +30°C° 0 mm 3 mps 750 mmHg 34%
12:00 +33°C° 0 mm 3 mps 749 mmHg 29%
13:00 +33°C° 0 mm 3 mps 749 mmHg 27%
14:00 +34°C° 0 mm 3 mps 749 mmHg 26%
15:00 +34°C° 0 mm 3 mps 749 mmHg 24%
16:00 +34°C° 0 mm 3 mps 749 mmHg 25%
17:00 +33°C° 0 mm 3 mps 749 mmHg 26%
18:00 +33°C° 0 mm 3 mps 749 mmHg 28%
19:00 +30°C° 0 mm 3 mps 750 mmHg 34%
20:00 +28°C° 0 mm 3 mps 750 mmHg 40%
21:00 +25°C° 0 mm 3 mps 750 mmHg 46%
22:00 +25°C° 0 mm 2 mps 751 mmHg 48%
23:00 +24°C° 0 mm 2 mps 751 mmHg 51%

Tomorrow, 25 July, Sunday

Time Temperature Precipitation Wind Pressure Humidity
00:00 +23°C° 0 mm 2 mps 751 mmHg 54%
01:00 +22°C° 0 mm 3 mps 751 mmHg 54%
02:00 +22°C° 0 mm 3 mps 751 mmHg 53%
03:00 +22°C° 0 mm 3 mps 751 mmHg 52%
04:00 +22°C° 0 mm 3 mps 751 mmHg 52%
05:00 +22°C° 0 mm 3 mps 752 mmHg 51%
06:00 +22°C° 0 mm 3 mps 752 mmHg 51%
07:00 +24°C° 0 mm 3 mps 752 mmHg 49%
08:00 +25°C° 0 mm 3 mps 752 mmHg 48%
09:00 +26°C° 0 mm 4 mps 752 mmHg 46%
10:00 +27°C° 0 mm 4 mps 752 mmHg 42%
11:00 +29°C° 0 mm 5 mps 752 mmHg 39%
12:00 +30°C° 0 mm 6 mps 752 mmHg 35%
13:00 +32°C° 0 mm 6 mps 752 mmHg 35%
14:00 +33°C° 0 mm 6 mps 752 mmHg 35%
15:00 +34°C° 0 mm 7 mps 752 mmHg 35%
16:00 +33°C° 0 mm 6 mps 752 mmHg 37%
17:00 +33°C° 0 mm 6 mps 752 mmHg 38%
18:00 +32°C° 0 mm 6 mps 752 mmHg 39%
19:00 +30°C° 0 mm 6 mps 752 mmHg 45%
20:00 +28°C° 0 mm 5 mps 752 mmHg 50%
21:00 +27°C° 0 mm 5 mps 753 mmHg 55%
22:00 +27°C° 0 mm 5 mps 753 mmHg 53%
23:00 +27°C° 0 mm 5 mps 753 mmHg 51%

Day after tomorrow, 26 July, Monday

Time Temperature Precipitation Wind Pressure Humidity
00:00 +27°C° 0 mm 6 mps 752 mmHg 50%
01:00 +26°C° 0 mm 6 mps 752 mmHg 49%
02:00 +26°C° 0 mm 6 mps 752 mmHg 48%
03:00 +26°C° 0 mm 6 mps 752 mmHg 48%
04:00 +26°C° 0 mm 6 mps 752 mmHg 48%
05:00 +24°C° 0 mm 6 mps 753 mmHg 48%
06:00 +24°C° 0 mm 6 mps 753 mmHg 48%
07:00 +27°C° 0 mm 7 mps 753 mmHg 42%
08:00 +29°C° 0 mm 8 mps 753 mmHg 36%
09:00 +32°C° 0 mm 9 mps 753 mmHg 30%
10:00 +33°C° 0 mm 8 mps 753 mmHg 28%
11:00 +34°C° 0 mm 8 mps 753 mmHg 27%
12:00 +35°C° 0 mm 8 mps 752 mmHg 25%
13:00 +37°C° 0 mm 8 mps 752 mmHg 25%
14:00 +37°C° 0 mm 8 mps 752 mmHg 26%
15:00 +37°C° 0 mm 8 mps 752 mmHg 26%
16:00 +37°C° 0 mm 8 mps 752 mmHg 29%
17:00 +35°C° 0 mm 7 mps 752 mmHg 31%
18:00 +34°C° 0 mm 7 mps 752 mmHg 34%
19:00 +32°C° 0.3 mm 6 mps 752 mmHg 42%
20:00 +28°C° 0.3 mm 5 mps 752 mmHg 49%
21:00 +26°C° 0.3 mm 4 mps 753 mmHg 57%
22:00 +25°C° 0.5 mm 4 mps 753 mmHg 59%
23:00 +25°C° 0.5 mm 4 mps 753 mmHg 61%

27 July, Tuesday

Time Temperature Precipitation Wind Pressure Humidity
00:00 +23°C° 0.5 mm 4 mps 753 mmHg 63%
01:00 +22°C° 0.5 mm 4 mps 753 mmHg 63%
02:00 +22°C° 0.5 mm 4 mps 753 mmHg 63%
03:00 +21°C° 0.5 mm 5 mps 752 mmHg 63%
04:00 +21°C° 0.2 mm 4 mps 753 mmHg 62%
05:00 +21°C° 0.2 mm 4 mps 753 mmHg 61%
06:00 +21°C° 0.2 mm 4 mps 753 mmHg 60%
07:00 +23°C° 0.1 mm 5 mps 754 mmHg 55%
08:00 +26°C° 0.1 mm 6 mps 754 mmHg 51%
09:00 +27°C° 0.1 mm 7 mps 754 mmHg 46%
10:00 +28°C° 0 mm 7 mps 754 mmHg 42%
11:00 +29°C° 0 mm 7 mps 754 mmHg 38%
12:00 +30°C° 0 mm 7 mps 754 mmHg 34%
13:00 +30°C° 0 mm 7 mps 754 mmHg 34%
14:00 +30°C° 0 mm 6 mps 754 mmHg 33%
15:00 +30°C° 0 mm 6 mps 754 mmHg 33%
16:00 +29°C° 0 mm 6 mps 754 mmHg 34%
17:00 +29°C° 0 mm 6 mps 755 mmHg 36%
18:00 +28°C° 0 mm 6 mps 755 mmHg 38%
19:00 +26°C° 0 mm 5 mps 755 mmHg 46%
20:00 +23°C° 0 mm 4 mps 755 mmHg 54%
21:00 +20°C° 0 mm 4 mps 755 mmHg 62%
22:00 +20°C° 0 mm 3 mps 756 mmHg 65%
23:00 +19°C° 0 mm 3 mps 756 mmHg 68%

28 July, Wednesday

Time Temperature Precipitation Wind Pressure Humidity
00:00 +18°C° 0 mm 3 mps 756 mmHg 71%
01:00 +18°C° 0 mm 3 mps 756 mmHg 72%
02:00 +17°C° 0 mm 3 mps 755 mmHg 73%
03:00 +17°C° 0 mm 3 mps 755 mmHg 74%
04:00 +17°C° 0 mm 3 mps 755 mmHg 74%
05:00 +17°C° 0 mm 3 mps 755 mmHg 74%
06:00 +17°C° 0 mm 3 mps 755 mmHg 74%
07:00 +20°C° 0 mm 3 mps 755 mmHg 64%
08:00 +23°C° 0 mm 4 mps 755 mmHg 54%
09:00 +27°C° 0 mm 4 mps 755 mmHg 44%
10:00 +28°C° 0 mm 5 mps 755 mmHg 37%
11:00 +30°C° 0 mm 5 mps 755 mmHg 31%
12:00 +33°C° 0 mm 6 mps 754 mmHg 25%
13:00 +34°C° 0 mm 6 mps 754 mmHg 23%
14:00 +34°C° 0 mm 6 mps 754 mmHg 22%
15:00 +35°C° 0 mm 6 mps 753 mmHg 20%
16:00 +34°C° 0 mm 5 mps 753 mmHg 21%
17:00 +34°C° 0 mm 5 mps 753 mmHg 22%
18:00 +33°C° 0 mm 5 mps 753 mmHg 23%
19:00 +30°C° 0 mm 4 mps 753 mmHg 29%
20:00 +27°C° 0 mm 4 mps 753 mmHg 35%
21:00 +24°C° 0 mm 3 mps 754 mmHg 42%
22:00 +22°C° 0 mm 3 mps 754 mmHg 47%
23:00 +21°C° 0 mm 3 mps 753 mmHg 52%

29 July, Thursday

Time Temperature Precipitation Wind Pressure Humidity
00:00 +20°C° 0 mm 2 mps 753 mmHg 57%
01:00 +20°C° 0 mm 2 mps 753 mmHg 58%
02:00 +19°C° 0 mm 2 mps 753 mmHg 59%
03:00 +19°C° 0 mm 2 mps 753 mmHg 61%
04:00 +19°C° 0 mm 2 mps 753 mmHg 59%
05:00 +19°C° 0 mm 2 mps 753 mmHg 58%
06:00 +19°C° 0 mm 2 mps 753 mmHg 57%
07:00 +22°C° 0 mm 3 mps 753 mmHg 49%
08:00 +26°C° 0 mm 3 mps 753 mmHg 40%
09:00 +29°C° 0 mm 4 mps 753 mmHg 32%
10:00 +32°C° 0 mm 4 mps 753 mmHg 28%
11:00 +34°C° 0 mm 4 mps 752 mmHg 24%
12:00 +35°C° 0 mm 4 mps 752 mmHg 19%
13:00 +36°C° 0 mm 4 mps 752 mmHg 18%
14:00 +36°C° 0 mm 4 mps 752 mmHg 17%
15:00 +37°C° 0 mm 4 mps 751 mmHg 16%
16:00 +36°C° 0 mm 3 mps 751 mmHg 17%
17:00 +36°C° 0 mm 3 mps 751 mmHg 18%
18:00 +35°C° 0 mm 3 mps 751 mmHg 19%
19:00 +33°C° 0 mm 3 mps 751 mmHg 25%
20:00 +29°C° 0 mm 3 mps 751 mmHg 30%
21:00 +26°C° 0 mm 3 mps 751 mmHg 36%
22:00 +25°C° 0 mm 2 mps 751 mmHg 39%
23:00 +24°C° 0 mm 2 mps 751 mmHg 42%
Show more